Location: Woodhurst
(52.3667°N, 0.0667°W)
Time: 05:43:08
(UTC+00:00)

ATLAS 3B R/B - Pass Details

Date: 19 May 2025
Orbit: 935 x 1258 km, 63.8° (Epoch: 13 June)

Event Time Altitude Azimuth Distance (km) Brightness Sun altitude
Exits shadow 21:30:07 12° 131° (SE) 2,913 4.4 -10.9°
Maximum altitude 21:33:19 16° 103° (ESE) 2,695 4.4 -11.2°
Drops below altitude 10° 21:37:39 10° 68° (ENE) 3,199 5.1 -11.6°
Sets 21:41:42 0° 50° (NE) 4,202 5.9 -11.9°
